STARLINK-32255, 60417

Orbit data source: Space-Track

STARLINK-32255, 60417 is a payload satellite owned by SpaceX/Seattle (US) in LEO that was launched on Sat, 10 Aug 2024 UTC via an FALCON 9 launch vehicle from the Air Force Eastern Test Range (AFETR). Payload-class satellites include a variety of spacecraft equipped with specific instruments for various scientific and technological missions. These include communications satellites like Starlink; space stations such as the ISS; scientific satellites like the Hubble; Earth observation satellites from companies like Planet Labs, Umbra, and HawkEye 360; GPS; miniature CubeSats for education and research; and military/defense satellites.

Loading next visibility...
Identifier
60417, 2024-141V
Orbit
LEO
Country
Flag of USUS
Related business
Manufacturer
SpaceX/Seattle
Mission
Operational Commercial Communications
Bus & Motor
STARLINK V2M, Unknown motor
Mass
730 kg wet, ~700 kg dry
Launch date (UTC)
2024-08-10 (1 year ago)
Launch vehicle
FALCON 9
Launch site
Air Force Eastern Test Range (AFETR)
Object type
Payload
Rocket body
Debris
Shape & HBR
Box + 2 Pan, 17.7 m
Radar Cross Section
33.884 m², Large (>1 m²)

Expand to show TLE details & history
Last TLE update: 9 hours ago

TLE from 9 hours ago
0 STARLINK-32255
1 60417U 24141V   25299.74900875  .00000567  00000-0  31285-4 0  9998
2 60417  53.1596 144.7305 0001268  95.9313 264.1832 15.30190696 69078
Epoch: 2025-10-26T17:58Z
TLE epoch observation values (Epoch: 2025-10-26T17:58:34.356Z)
Latitude
-0.00002°
Longitude
-160.27341°
Altitude
476.231 km
Speed
7.629 km/s
True Right ascension
09h 38m 55s
True Declination
0° 00' 00"
Sunlit
Object was in daylight at epoch
Visualization orbit readout
Latitude
Unknown
Longitude
Unknown
Altitude
Unknown
Speed
Unknown
Apparent Right ascension
Unknown
Apparent Declination
Unknown
Sunlit
N/A
Visualization observer readout
Local Sidereal Time
22:22:51
Azimuth
Unknown
Elevation
Unknown
Doppler factor
Unknown
Orbital elements
Apogee altitude
476.368 km
Perigee altitude
474.63 km
Semi-major axis
6,853.636 km
Eccentricity
0.00013
Inclination
53.1596°
RAAN
144.7305°
Arg. of periapsis
95.9313°
True anomaly
264.16874°
Mean anomaly
264.1832°
Eccentric anomaly
264.17597°
Mean motion
3.82527 °/min
Orbital period
94.11 mins
BSTAR
0.000031285
Loading maneuver chart data...
Computing Atmospheric mass density...
Loading historical data...
Loading historical data...
Loading historical data...
Loading historical data...
Loading historical data...
Loading historical data...
Loading historical data...

Documentation

Showing up to 5 results
|